Regional Weather Roundup
Issued by NWS

Home | Current Version | Previous Version | Graphics & Text | Print | Product List | Glossary On
Versions: 1 2 3 4 5 6 7 8 9 10 11 12 13 14 15 16 17 18 19 20 21 22 23 24 25 26 27 28 29 30 31 32 33 34 35 36 37 38 39 40 41 42 43 44 45 46 47 48 49 50
515
ASUS43 KLSX 221707
RWRMO

WEATHER SUMMARY FOR MISSOURI
NATIONAL WEATHER SERVICE SPRINGFIELD MO
1200 PM CDT SAT JUL 22 2017

NOTE: "FAIR" INDICATES FEW OR NO CLOUDS BELOW 12,000 FEET WITH NO
       SIGNIFICANT WEATHER AND/OR OBSTRUCTIONS TO VISIBILITY.
       CURRENT SKY AND/OR WEATHER CONDITIONS ARE NOT AVAILABLE FOR
       CHILLICOTHE AND FARMINGTON.

MOZ001>031-035>038-043-044-053-054-221800-
...NORTHERN AND WESTERN MISSOURI...

CITY           SKY/WX    TMP DP  RH WIND       PRES   REMARKS
KANSAS CTY INT MOSUNNY   92  75  57 SW12      29.83S HX 103
KANSAS C DTWN  SUNNY     93  74  53 SW10      29.81F HX 103
LEE`S SUMMIT   SUNNY     92  73  53 SW18      29.85R HX 100
ST JOSEPH      SUNNY     91  76  61 SW8       29.80S HX 103
CHILLICOTHE      N/A     91  77  63 VRB5      29.81S HX 104
KIRKSVILLE     MOSUNNY   90  76  63 SW13G20   29.83R HX 101

$$
MOZ066>068-077>081-088>096-101>105-221800-
...SOUTHWEST MISSOURI...

CITY           SKY/WX    TMP DP  RH WIND       PRES   REMARKS
SPRINGFIELD    SUNNY     92  72  51 SW13      29.95F HX  99
JOPLIN         SUNNY     95  74  50 SW16      29.93F HX 105
BRANSON        SUNNY     91  72  52 W6        29.99S HX  98

$$
MOZ032>034-039>042-045>050-055>058-069>072-221800-
...CENTRAL MISSOURI...

CITY           SKY/WX    TMP DP  RH WIND       PRES   REMARKS
COLUMBIA       SUNNY     96  72  45 SW15      29.87F HX 104
JEFFERSON CITY SUNNY     94  76  55 S15       29.85F HX 106
ROLLA          MOSUNNY   90  75  61 S8        29.93R HX 100
SEDALIA        SUNNY     94  76  55 SW17G23   29.87S HX 106
WHITEMAN AFB   MOSUNNY   95  72  47 W14       29.83S HX 102
WARRENSBURG    SUNNY     91  72  52 S16       29.84S HX  98
OSAGE BEACH    MOSUNNY   96  72  45 SW13G21   29.89F HX 104

$$
MOZ051-052-059>065-221800-
...EAST CENTRAL MISSOURI...

CITY           SKY/WX    TMP DP  RH WIND       PRES   REMARKS
ST LOUIS INTL  MOSUNNY   93  71  48 SE14      29.90F HX 100
SPIRIT OF STL  SUNNY     92  76  59 E6        29.87F HX 104
ST CHARLES     SUNNY     90  71  53 SE18      29.86F HX  96

$$
MOZ072>076-082>087-097>100-106>115-221800-
...SOUTH CENTRAL AND SOUTHEAST MISSOURI...

CITY           SKY/WX    TMP DP  RH WIND       PRES   REMARKS
CAPE GIRARDEAU SUNNY     92  73  53 W3        29.95R HX 100
FARMINGTON     SUNNY     93  72  50 VRB3      29.95F HX 101
POPLAR BLUFF   SUNNY     91  78  65 SE7       29.94S HX 106
WEST PLAINS    SUNNY     93  71  48 SW9       29.98F HX 100

$$



USA.gov is the U.S. government's official web portal to all federal, state and local government web resources and services.